Regional Weather Roundup
Issued by NWS Albany, NY

Home | Current Version | Previous Version | Text Only | Print | Product List | Glossary On
Versions: 1 2 3 4 5 6 7 8 9 10 11 12 13 14 15 16 17 18 19 20 21 22 23 24 25 26 27 28 29 30 31 32 33 34 35 36 37 38 39 40 41 42 43 44 45 46 47 48 49 50
000
ASUS41 KALY 311110
RWRALY

NEW YORK STATE HOURLY WEATHER ROUNDUP
NATIONAL WEATHER SERVICE ALBANY NY
700 AM EDT THU JUL 31 2014

NOTE: "FAIR" INDICATES FEW OR NO CLOUDS BELOW 12,000 FEET WITH NO
SIGNIFICANT WEATHER AND/OR NO OBSTRUCTIONS TO VISIBILITY.

NYZ032-033-038>043-046>054-057>066-NYZ062>081-311200-
EAST


CITY           SKY/WX    TMP DP  RH WIND       PRES   REMARKS
ALBANY         CLOUDY    64  57  78 S7        30.06R
GLENS FALLS    MOSUNNY   58  56  93 NW3       30.05R
POUGHKEEPSIE   PTSUNNY   60  57  89 CALM      30.07S
NEWBURGH       CLOUDY    61  57  88 CALM      30.09R
MONTGOMERY     LGT RAIN  58  56  93 CALM      30.08R
WHITE PLAINS   SUNNY     62  58  86 CALM      30.09R
ISLIP          MOSUNNY   67  60  78 SW6       30.09R
NEW YORK CITY  MOSUNNY   70  55  59 S6        30.08R
CENTRAL PARK   SUNNY     69  54  58 VRB3      30.11S
$$

NYZ005>009-017-018-044>046-055-056-311200-
CENTRAL


CITY           SKY/WX    TMP DP  RH WIND       PRES   REMARKS
FULTON         PTSUNNY   58  55  90 CALM      30.01R
SYRACUSE       PTSUNNY   57  56  96 E5        30.00S
ROME           MOSUNNY   57  55  93 E6        30.04S
ELMIRA         CLOUDY    54  53  97 CALM      30.04S
BINGHAMTON     CLOUDY    55  54  96 S3        30.06S
MONTICELLO     CLOUDY    55  55 100 CALM      30.11R
$$

NYZ026>034-041>043-311200-
NORTH


CITY           SKY/WX    TMP DP  RH WIND       PRES   REMARKS
WATERTOWN      PTSUNNY   61  54  77 VRB3      29.98F
FORT DRUM      NOT AVBL
MASSENA        MOSUNNY   56  55  97 CALM      30.00S
SARANAC LAKE   MOSUNNY   46  45  96 CALM      30.04R FOG
PLATTSBURGH    SUNNY     57  56  96 CALM      30.02R
$$

NYZ001>004-010>016-019>021-311200-
WEST


CITY           SKY/WX    TMP DP  RH WIND       PRES   REMARKS
NIAGARA FALLS  MOCLDY    57  55  93 CALM      29.99
BUFFALO        MOCLDY    58  55  90 S6        29.99S
DUNKIRK        CLOUDY    59  57  93 SE5       30.00F
JAMESTOWN      CLOUDY    57  55  94 S3        30.04R
WELLSVILLE     CLOUDY    59  54  83 SW8       30.07R
ROCHESTER      CLOUDY    60  58  92 SW6       30.01R
PENN YAN       CLOUDY    59  56  89 SW8       30.03R
$$

             KEY
       WCI = WIND CHILL INDEX
       VSB = VISIBILITY
       HX  = HEAT INDEX
$$


USA.gov is the U.S. government's official web portal to all federal, state and local government web resources and services.